[[[{"header":{"parameterUnit":"kt","parameterCategory":2,"dx":1,"dy":1,"la1":30.253999710083008,"la2":30.299108505249023,"lo1":-89.0895004272461,"lo2":-89.04439544677734,"nx":28,"ny":28,"refTime":"2022-09-24T21:00:00:Z","depth":0,"parameterNumber":1,"parameterNumberName":"U-component_of_WINDS"},"data":[-3.899,-3.9116,-3.9132,-3.9284,-3.9324,-3.9431,-3.9475,-3.9534,-3.9585,-3.9717,-3.9795,-3.9826,-3.9886,-3.9986,-4.0073,-4.0085,-4.0121,-4.0154,-4.0163,-3.9999,-3.9978,-3.9958,-3.9928,-4.0162,-4.0162,-4.033,-4.0331,-4.0332,-3.8871,-3.8912,-3.8996,-3.9089,-3.9163,-3.9141,-3.9214,-3.9277,-3.9374,-3.9438,-3.9517,-3.9634,-3.973,-3.9779,-3.9875,-3.9936,-3.9932,-3.9961,-3.9956,-3.9966,-3.9792,-3.976,-3.9962,-3.9962,-3.9962,-3.9962,-3.9962,-3.9962,-3.8658,-3.8732,-3.8797,-3.8889,-3.8941,-3.9004,-3.9078,-3.9113,-3.9197,-3.9297,-3.9301,-3.9412,-3.948,-3.9603,-3.9649,-3.9737,-3.9708,-3.9746,-3.9755,-3.9764,-3.9772,-3.9529,-3.9754,-3.9754,-3.9753,-3.9753,-3.9753,0,-3.8506,-3.8515,-3.8596,-3.8683,-3.8751,-3.8821,-3.8888,-3.8934,-3.8958,-3.9027,-3.9128,-3.919,-3.9312,-3.941,-3.9503,-3.9544,-3.9529,-3.953,-3.9555,-3.9554,-3.9542,-3.955,-3.9266,-3.9523,-3.9521,-3.9519,-3.9518,-3.9518,-3.8293,-3.8377,-3.8453,-3.8508,-3.8548,-3.8638,-3.8695,-3.8709,-3.8769,-3.8855,-3.8921,-3.9019,-3.9098,-3.9259,-3.93,-3.9392,-3.9386,-3.9482,-3.94,-3.9396,-3.9388,-3.9382,-3.9391,-3.9497,-3.95,-3.9502,-3.9504,0,-3.8171,-3.8195,-3.8332,-3.8399,-3.8418,-3.8507,-3.8565,-3.8641,-3.8666,-3.8774,-3.88,-3.8841,-3.8941,-3.8966,-3.9086,-3.9096,-3.9247,-3.9238,-3.9223,-3.9223,-3.9312,-3.9303,-3.9595,-3.9635,-3.9392,-3.9394,-3.9396,0,-3.7998,-3.8109,-3.8139,-3.8217,-3.8342,-3.8352,-3.8476,-3.8509,-3.8566,-3.8652,-3.8638,-3.8719,-3.8738,-3.8823,-3.8839,-3.8966,-3.8989,-3.9004,-3.9007,-3.9005,-3.9003,-3.9037,-3.9026,-3.9009,-3.9008,-3.9007,-3.9005,0,-3.7804,-3.795,-3.8077,-3.8114,-3.8196,-3.8256,-3.8293,-3.8356,-3.8412,-3.8489,-3.8526,-3.8615,-3.8664,-3.8735,-3.8753,-3.8696,-3.891,-3.8835,-3.8925,-3.8925,-3.897,-3.8967,-3.922,-3.9003,-3.9003,-3.9003,-3.9002,0,-3.7668,-3.7742,-3.7922,-3.799,-3.8028,-3.8112,-3.8199,-3.8276,-3.8344,-3.8359,-3.8419,-3.8412,-3.8525,-3.845,-3.8605,-3.8526,-3.8576,-3.8601,-3.8608,-3.8618,-3.8533,-3.8672,-3.891,-3.8936,-3.863,-3.8627,-3.8624,0,-3.7439,-3.7627,-3.7635,-3.7807,-3.7896,-3.7873,-3.7967,-3.8027,-3.8053,-3.8134,-3.8164,-3.8257,-3.8206,-3.8238,-3.8312,-3.8347,-3.845,-3.8334,-3.8453,-3.8457,-3.8435,-3.8655,-3.8683,-3.8855,-3.8585,-3.8589,-3.8592,0,-3.7265,-3.736,-3.739,-3.7432,-3.7511,-3.7586,-3.7695,-3.7787,-3.7841,-3.791,-3.8001,-3.8132,-3.8099,-3.8153,-3.8156,-3.8232,-3.8381,-3.8186,-3.8188,-3.822,-3.8567,-3.8594,-3.8623,-3.8367,-3.8372,-3.8376,-3.8561,0,-3.7053,-3.7149,-3.723,-3.7323,-3.7385,-3.7493,-3.7516,-3.7578,-3.7574,-3.7598,-3.7733,-3.7789,-3.7885,-3.7923,-3.7921,-3.8086,-3.8062,-3.8025,-3.7952,-3.8096,-3.8158,-3.8183,-3.7858,-3.7856,-3.7855,-3.7853,0,0,-3.6828,-3.6965,-3.697,-3.7073,-3.7125,-3.7098,-3.7211,-3.7259,-3.7356,-3.7394,-3.7353,-3.7546,-3.7592,-3.7754,-3.7801,-3.784,-3.7872,-3.7819,-3.8028,-3.8047,-3.8065,-3.813,-3.8156,-3.785,-3.785,-3.7849,-3.7849,0,-3.6754,-3.6799,-3.691,-3.6959,-3.7032,-3.7051,-3.7078,-3.7145,-3.7166,-3.7297,-3.7273,-3.7357,-3.751,-3.7563,-3.761,-3.7801,-3.7779,-3.7829,-3.7923,-3.801,-3.8031,-3.805,-3.8119,-3.8144,-3.7844,-3.7845,-3.7845,0,-3.6586,-3.6634,-3.6689,-3.6804,-3.6852,-3.6944,-3.6873,-3.6974,-3.7044,-3.7009,-3.7139,-3.7173,-3.7246,-3.7394,-3.7462,-3.7427,-3.7692,-3.7613,-3.7624,-3.7632,-3.7717,-3.7743,-3.7766,-3.7462,-3.746,-3.7459,0,0,-3.6519,-3.6608,-3.6663,-3.679,-3.6821,-3.6852,-3.6903,-3.6903,-3.6967,-3.6993,-3.7035,-3.71,-3.7189,-3.7247,-3.7332,-3.7492,-3.7509,-3.7564,-3.7583,-3.7597,-3.7613,-3.7702,-3.7727,-3.7454,-3.7453,-3.7453,0,0,-3.6488,-3.6556,-3.6539,-3.6689,-3.675,-3.6814,-3.6891,-3.6873,-3.6951,-3.6941,-3.6948,-3.6965,-3.7105,-3.7139,-3.7064,-3.7307,-3.7234,-3.7253,-3.7278,-3.7302,-3.7319,-3.7308,-3.6999,0,0,0,0,0,-3.6422,-3.6547,-3.6531,-3.6559,-3.6705,-3.6822,-3.6841,-3.6848,-3.6796,-3.6858,-3.6891,-3.6862,-3.71,-3.7033,-3.7062,-3.7146,-3.7383,-3.7396,-3.7408,-3.7479,-3.7503,-3.7523,0,0,0,0,0,0,-3.6433,-3.6468,-3.6528,-3.6596,-3.6629,-3.6818,-3.6732,-3.6737,-3.679,-3.6783,-3.6857,-3.6865,-3.6874,-3.7019,-3.7045,-3.7124,-3.699,-3.7388,-3.7399,-3.7408,-3.7487,-3.7507,-3.7523,0,0,0,0,0,-3.6442,-3.647,-3.67,-3.6595,-3.6623,-3.6662,-3.6727,-3.6731,-3.6772,-3.6822,-3.6829,-3.6773,-3.6876,-3.6899,-3.7034,-3.7112,-3.6972,-3.6981,-3.7395,-3.7403,-3.7411,-3.7497,0,0,0,0,0,0,-3.6449,-3.6475,-3.6706,-3.6715,-3.6547,-3.6652,-3.6668,-3.6726,-3.6808,-3.6816,-3.6737,-3.6731,-3.6879,-3.6896,-3.6914,-3.7108,-3.6957,-3.6967,-3.6973,-3.7401,-3.7408,-3.7414,0,0,0,0,0,0,-3.646,-3.6483,-3.6711,-3.6651,-3.6653,-3.6642,-3.6657,-3.6773,-3.681,-3.6719,-3.6716,-3.6733,-3.6854,-3.6895,-3.6908,-3.709,-3.6946,-3.6955,-3.6962,-3.6966,-3.7407,-3.7412,0,0,0,0,0,0,-3.647,-3.649,-3.6648,-3.665,-3.6652,-3.6753,-3.6745,-3.6894,-3.6756,-3.6716,-3.6744,-3.6739,-3.6854,-3.6867,-3.6905,-3.7081,-3.7088,-3.6946,-3.6953,-3.6957,-3.696,0,0,0,0,0,0,0,-3.6478,-3.6345,-3.6653,-3.665,-3.6651,-3.6798,-3.6801,-3.6803,-3.6755,-3.675,-3.6746,-3.6741,-3.6893,-3.6903,-3.6913,-3.7074,0,0,-3.6945,-3.695,0,0,0,0,0,0,0,0,-3.6337,-3.6343,-3.6653,-3.6655,-3.6657,-3.6799,-3.6801,-3.6803,-3.6754,-3.6751,-3.6747,-3.6743,-3.6895,-3.6904,-3.6912,0,0,0,0,0,0,0,0,0,0,0,0,0,0,0,-3.6653,-3.6655,0,-3.6799,-3.6801,-3.6802,-3.6754,-3.6751,-3.6748,-3.6745,-3.6898,-3.6904,-3.6911,0,0,0,0,0,0,0,0,0,0,0,0,0,0,0,0,0,0,0,0,0,0,0,0,0,0,0,0,0,0,0,0,0,0,0,0,0,0,0,0,0,0,0,0,0,0,0,0,0,0,0,0,0,0,0,0,0,0,0,0,0,0,0,0,0,0,0,0,0]}],[{"header":{"parameterUnit":"kt","parameterCategory":2,"dx":1,"dy":1,"la1":30.253999710083008,"la2":30.299108505249023,"lo1":-89.0895004272461,"lo2":-89.04439544677734,"nx":28,"ny":28,"refTime":"2022-09-24T21:00:00:Z","depth":0,"parameterNumber":2,"parameterNumberName":"V-component_of_WINDS"},"data":[5.7461,5.7501,5.7501,5.7546,5.7553,5.7583,5.7593,5.7606,5.7616,5.7651,5.7671,5.7673,5.7682,5.7704,5.7724,5.7725,5.7732,5.7747,5.7744,5.7682,5.7673,5.7664,5.7654,5.7749,5.7749,5.7807,5.7808,5.7808,5.7413,5.7421,5.7445,5.7468,5.7489,5.7474,5.7491,5.7508,5.7535,5.7548,5.7568,5.7598,5.7622,5.7625,5.7647,5.7664,5.7657,5.767,5.7667,5.7668,5.7602,5.7592,5.7675,5.7675,5.7675,5.7675,5.7675,5.7675,5.7325,5.735,5.7364,5.739,5.7402,5.7417,5.744,5.7443,5.7466,5.749,5.7485,5.7515,5.7527,5.7553,5.7561,5.7584,5.7569,5.7582,5.7584,5.7587,5.7589,5.7501,5.7588,5.7587,5.7587,5.7587,5.7587,0,5.726,5.7258,5.7282,5.7305,5.7324,5.7342,5.7359,5.7373,5.7367,5.7386,5.7414,5.7429,5.7459,5.7484,5.7504,5.751,5.7494,5.7494,5.7502,5.7503,5.7501,5.75,5.739,5.7491,5.749,5.7489,5.7489,5.7489,5.7168,5.7199,5.7213,5.723,5.7239,5.7266,5.7282,5.7275,5.7292,5.731,5.7331,5.7357,5.7376,5.742,5.7422,5.7444,5.7436,5.7474,5.7439,5.7439,5.7432,5.743,5.7431,5.748,5.7481,5.7482,5.7483,0,5.7116,5.7116,5.7162,5.7174,5.7177,5.7209,5.7217,5.7242,5.7242,5.7275,5.7283,5.7283,5.7309,5.7305,5.7335,5.7332,5.7379,5.7373,5.7374,5.7371,5.7403,5.7399,5.7512,5.7525,5.743,5.7431,5.7432,0,5.7036,5.7077,5.7073,5.71,5.7143,5.7135,5.7178,5.7183,5.7194,5.722,5.7204,5.7228,5.7219,5.7243,5.7238,5.7277,5.7283,5.7282,5.7279,5.7281,5.7281,5.7287,5.7281,5.7277,5.7276,5.7276,5.7275,0,5.6953,5.6999,5.7043,5.7053,5.7069,5.709,5.7098,5.711,5.7126,5.7145,5.7155,5.7178,5.719,5.7208,5.7201,5.7177,5.7249,5.7215,5.7247,5.7247,5.7261,5.726,5.7364,5.7275,5.7274,5.7274,5.7274,0,5.6887,5.6909,5.6975,5.6987,5.6999,5.7029,5.7051,5.7076,5.709,5.7089,5.7104,5.7092,5.7128,5.7093,5.7141,5.7111,5.7123,5.7126,5.7128,5.7128,5.7089,5.7144,5.7247,5.7256,5.7132,5.7131,5.713,0,5.6789,5.6856,5.685,5.6912,5.6942,5.6921,5.6953,5.6967,5.6969,5.6993,5.6994,5.7022,5.6996,5.7004,5.7029,5.703,5.7069,5.7025,5.7056,5.7057,5.705,5.7145,5.7159,5.7226,5.7115,5.7116,5.7117,0,5.6713,5.6734,5.6746,5.6756,5.6775,5.68,5.6838,5.6865,5.6881,5.69,5.6929,5.697,5.695,5.6964,5.6957,5.6982,5.7042,5.6958,5.6958,5.6971,5.7108,5.7121,5.7132,5.7031,5.7033,5.7035,5.7105,0,5.6609,5.6643,5.6676,5.6702,5.6721,5.6761,5.6758,5.6778,5.6769,5.6769,5.6814,5.6825,5.6851,5.6864,5.6855,5.6917,5.6905,5.6885,5.6848,5.6912,5.6935,5.6944,5.6814,5.6813,5.6813,5.6812,0,0,5.6513,5.6563,5.6555,5.6593,5.6608,5.6585,5.6627,5.664,5.6666,5.6676,5.6656,5.6715,5.6724,5.6779,5.6798,5.681,5.682,5.6798,5.6882,5.689,5.6898,5.6922,5.6933,5.681,5.681,5.681,5.6809,0,5.6474,5.6488,5.6531,5.6544,5.6562,5.6562,5.6572,5.6586,5.6588,5.6634,5.6613,5.6639,5.6687,5.6699,5.6711,5.6792,5.6773,5.6801,5.6845,5.6874,5.6883,5.6891,5.6917,5.6927,5.6807,5.6807,5.6807,0,5.6396,5.6407,5.6429,5.6465,5.6477,5.6509,5.6471,5.6507,5.653,5.6502,5.6547,5.6552,5.6568,5.6622,5.6646,5.6628,5.673,5.6699,5.6704,5.6706,5.6733,5.6744,5.6754,5.6624,5.6624,5.6623,0,0,5.6362,5.6395,5.6404,5.6457,5.6466,5.6465,5.6482,5.6474,5.649,5.6497,5.6503,5.6518,5.6545,5.6563,5.6589,5.6649,5.665,5.6676,5.6685,5.6692,5.6697,5.6727,5.6738,5.6621,5.6621,5.6621,0,0,5.6345,5.6359,5.6347,5.6407,5.6424,5.6435,5.6467,5.6452,5.6475,5.647,5.6457,5.6461,5.6511,5.6517,5.6486,5.6575,5.654,5.6547,5.6569,5.658,5.6588,5.6584,5.6447,0,0,0,0,0,5.6303,5.6357,5.6346,5.6356,5.6402,5.6442,5.6447,5.6439,5.6414,5.6439,5.6441,5.6421,5.6498,5.647,5.6479,5.6513,5.6591,5.6596,5.6601,5.6644,5.6655,5.6664,0,0,0,0,0,0,5.6307,5.6319,5.6345,5.6359,5.6369,5.644,5.6395,5.6394,5.6411,5.6406,5.6421,5.6421,5.6414,5.6465,5.6473,5.6505,5.6444,5.6593,5.6597,5.6601,5.6647,5.6657,5.6665,0,0,0,0,0,5.631,5.6319,5.6396,5.6358,5.6367,5.6369,5.6393,5.6392,5.6404,5.6409,5.6408,5.6397,5.6415,5.6422,5.647,5.6502,5.6438,5.6441,5.6596,5.6599,5.6602,5.6652,0,0,0,0,0,0,5.6312,5.6318,5.6397,5.6399,5.6337,5.6365,5.6369,5.639,5.6405,5.6406,5.6384,5.638,5.6417,5.6421,5.6426,5.6501,5.6433,5.6437,5.6439,5.6598,5.6601,5.6604,0,0,0,0,0,0,5.6313,5.632,5.6398,5.6373,5.6372,5.6361,5.6365,5.6404,5.6406,5.6379,5.6377,5.6382,5.6409,5.6422,5.6425,5.6488,5.643,5.6433,5.6435,5.6436,5.6601,5.6603,0,0,0,0,0,0,5.6316,5.6322,5.6372,5.6371,5.6371,5.6396,5.6396,5.6443,5.6385,5.6379,5.638,5.6377,5.641,5.6413,5.6425,5.6486,5.6487,5.643,5.6432,5.6433,5.6434,0,0,0,0,0,0,0,5.6318,5.6278,5.6384,5.637,5.637,5.6421,5.6422,5.6422,5.6385,5.6383,5.638,5.6378,5.6413,5.6416,5.6419,5.6484,0,0,5.643,5.6431,0,0,0,0,0,0,0,0,5.6275,5.6277,5.6384,5.6384,5.6385,5.6421,5.6421,5.6422,5.6384,5.6383,5.6381,5.6379,5.6413,5.6416,5.6419,0,0,0,0,0,0,0,0,0,0,0,0,0,0,0,5.6384,5.6384,0,5.6421,5.6421,5.6422,5.6384,5.6383,5.6381,5.638,5.6414,5.6416,5.6419,0,0,0,0,0,0,0,0,0,0,0,0,0,0,0,0,0,0,0,0,0,0,0,0,0,0,0,0,0,0,0,0,0,0,0,0,0,0,0,0,0,0,0,0,0,0,0,0,0,0,0,0,0,0,0,0,0,0,0,0,0,0,0,0,0,0,0,0,0]}]]]